Year,Month,Day,Hour,Minute,Value (Times are PST for temperature in C)
2007,06,26,00,00,11.90
2007,06,26,00,01,11.90
2007,06,26,00,02,11.90
2007,06,26,00,03,11.90
2007,06,26,00,04,11.90
2007,06,26,00,05,11.80
2007,06,26,00,06,11.80
2007,06,26,00,07,11.80
2007,06,26,00,08,11.80
2007,06,26,00,09,11.80
2007,06,26,00,10,11.80
2007,06,26,00,11,11.80
2007,06,26,00,12,11.80
2007,06,26,00,13,11.80
2007,06,26,00,14,11.70
2007,06,26,00,15,11.70
2007,06,26,00,16,11.70
2007,06,26,00,17,11.70
2007,06,26,00,18,11.70
2007,06,26,00,19,11.70
2007,06,26,00,20,11.70
2007,06,26,00,21,11.70
2007,06,26,00,22,11.70
2007,06,26,00,23,11.70
2007,06,26,00,24,11.70
2007,06,26,00,25,11.70
2007,06,26,00,26,11.70
2007,06,26,00,27,11.70
2007,06,26,00,28,11.70
2007,06,26,00,29,11.70
2007,06,26,00,30,11.70
2007,06,26,00,31,11.70
2007,06,26,00,32,11.70
2007,06,26,00,33,11.70
2007,06,26,00,34,11.70
2007,06,26,00,35,11.70
2007,06,26,00,36,11.60
2007,06,26,00,37,11.60
2007,06,26,00,38,11.60
2007,06,26,00,39,11.60
2007,06,26,00,40,11.60
2007,06,26,00,41,11.60
2007,06,26,00,42,11.60
2007,06,26,00,43,11.60
2007,06,26,00,44,11.60
2007,06,26,00,45,11.60
2007,06,26,00,46,11.60
2007,06,26,00,47,11.70
2007,06,26,00,48,11.70
2007,06,26,00,49,11.70
2007,06,26,00,50,11.70
2007,06,26,00,51,11.70
2007,06,26,00,52,11.70
2007,06,26,00,53,11.70
2007,06,26,00,54,11.70
2007,06,26,00,55,11.70
2007,06,26,00,56,11.80
2007,06,26,00,57,11.80
2007,06,26,00,58,11.80
2007,06,26,00,59,11.80
2007,06,26,01,00,11.80
2007,06,26,01,01,11.80
2007,06,26,01,02,11.80
2007,06,26,01,03,11.80
2007,06,26,01,04,11.80
2007,06,26,01,05,11.90
2007,06,26,01,06,11.90
2007,06,26,01,07,11.90
2007,06,26,01,08,11.90
2007,06,26,01,09,11.90
2007,06,26,01,10,11.90
2007,06,26,01,11,11.90
2007,06,26,01,12,11.90
2007,06,26,01,13,11.90
2007,06,26,01,14,11.90
2007,06,26,01,15,11.90
2007,06,26,01,16,11.90
2007,06,26,01,17,11.90
2007,06,26,01,18,11.90
2007,06,26,01,19,11.90
2007,06,26,01,20,11.90
2007,06,26,01,21,11.90
2007,06,26,01,22,11.90
2007,06,26,01,23,11.90
2007,06,26,01,24,11.90
2007,06,26,01,25,11.90
2007,06,26,01,26,11.90
2007,06,26,01,27,11.90
2007,06,26,01,28,11.90
2007,06,26,01,29,11.90
2007,06,26,01,30,11.90
2007,06,26,01,31,11.90
2007,06,26,01,32,11.90
2007,06,26,01,33,11.90
2007,06,26,01,34,11.90
2007,06,26,01,35,11.90
2007,06,26,01,36,11.90
2007,06,26,01,37,11.90
2007,06,26,01,38,11.90
2007,06,26,01,39,11.80
2007,06,26,01,40,11.80
2007,06,26,01,41,11.80
2007,06,26,01,42,11.80
2007,06,26,01,43,11.80
2007,06,26,01,44,11.80
2007,06,26,01,45,11.80
2007,06,26,01,46,11.80
2007,06,26,01,47,11.70
2007,06,26,01,48,11.70
2007,06,26,01,49,11.70
2007,06,26,01,50,11.70
2007,06,26,01,51,11.70
2007,06,26,01,52,11.70
2007,06,26,01,53,11.70
2007,06,26,01,54,11.70
2007,06,26,01,55,11.70
2007,06,26,01,56,11.70
2007,06,26,01,57,11.70
2007,06,26,01,58,11.70
2007,06,26,01,59,11.70
2007,06,26,02,00,11.70
2007,06,26,02,01,11.60
2007,06,26,02,02,11.60
2007,06,26,02,03,11.60
2007,06,26,02,04,11.60
2007,06,26,02,05,11.60
2007,06,26,02,06,11.60
2007,06,26,02,07,11.60
2007,06,26,02,08,11.60
2007,06,26,02,09,11.60
2007,06,26,02,10,11.60
2007,06,26,02,11,11.50
2007,06,26,02,12,11.50
2007,06,26,02,13,11.50
2007,06,26,02,14,11.50
2007,06,26,02,15,11.50
2007,06,26,02,16,11.50
2007,06,26,02,17,11.40
2007,06,26,02,18,11.40
2007,06,26,02,19,11.40
2007,06,26,02,20,11.40
2007,06,26,02,21,11.40
2007,06,26,02,22,11.40
2007,06,26,02,23,11.30
2007,06,26,02,24,11.30
2007,06,26,02,25,11.30
2007,06,26,02,26,11.30
2007,06,26,02,27,11.30
2007,06,26,02,28,11.30
2007,06,26,02,29,11.30
2007,06,26,02,30,11.30
2007,06,26,02,31,11.30
2007,06,26,02,32,11.20
2007,06,26,02,33,11.20
2007,06,26,02,34,11.20
2007,06,26,02,35,11.20
2007,06,26,02,36,11.20
2007,06,26,02,37,11.20
2007,06,26,02,38,11.20
2007,06,26,02,39,11.20
2007,06,26,02,40,11.20
2007,06,26,02,41,11.20
2007,06,26,02,42,11.10
2007,06,26,02,43,11.10
2007,06,26,02,44,11.10
2007,06,26,02,45,11.10
2007,06,26,02,46,11.10
2007,06,26,02,47,11.10
2007,06,26,02,48,11.10
2007,06,26,02,49,11.00
2007,06,26,02,50,11.00
2007,06,26,02,51,11.00
2007,06,26,02,52,11.00
2007,06,26,02,53,11.00
2007,06,26,02,54,11.00
2007,06,26,02,55,11.00
2007,06,26,02,56,11.00
2007,06,26,02,57,11.00
2007,06,26,02,58,11.00
2007,06,26,02,59,11.00
2007,06,26,03,00,10.90
2007,06,26,03,01,10.90
2007,06,26,03,02,10.90
2007,06,26,03,03,10.90
2007,06,26,03,04,10.90
2007,06,26,03,05,10.90
2007,06,26,03,06,10.90
2007,06,26,03,07,10.90
2007,06,26,03,08,10.90
2007,06,26,03,09,10.90
2007,06,26,03,10,10.90
2007,06,26,03,11,10.90
2007,06,26,03,12,10.90
2007,06,26,03,13,10.90
2007,06,26,03,14,10.90
2007,06,26,03,15,10.90
2007,06,26,03,16,10.90
2007,06,26,03,17,10.80
2007,06,26,03,18,10.80
2007,06,26,03,19,10.80
2007,06,26,03,20,10.90
2007,06,26,03,21,10.90
2007,06,26,03,22,10.90
2007,06,26,03,23,10.90
2007,06,26,03,24,10.90
2007,06,26,03,25,10.90
2007,06,26,03,26,10.80
2007,06,26,03,27,10.80
2007,06,26,03,28,10.80
2007,06,26,03,29,10.80
2007,06,26,03,30,10.80
2007,06,26,03,31,10.80
2007,06,26,03,32,10.80
2007,06,26,03,33,10.80
2007,06,26,03,34,10.80
2007,06,26,03,35,10.70
2007,06,26,03,36,10.70
2007,06,26,03,37,10.70
2007,06,26,03,38,10.70
2007,06,26,03,39,10.70
2007,06,26,03,40,10.70
2007,06,26,03,41,10.70
2007,06,26,03,42,10.70
2007,06,26,03,43,10.60
2007,06,26,03,44,10.60
2007,06,26,03,45,10.60
2007,06,26,03,46,10.60
2007,06,26,03,47,10.60
2007,06,26,03,48,10.60
2007,06,26,03,49,10.60
2007,06,26,03,50,10.60
2007,06,26,03,51,10.60
2007,06,26,03,52,10.60
2007,06,26,03,53,10.60
2007,06,26,03,54,10.60
2007,06,26,03,55,10.60
2007,06,26,03,56,10.50
2007,06,26,03,57,10.50
2007,06,26,03,58,10.40
2007,06,26,03,59,10.50
2007,06,26,04,00,10.50
2007,06,26,04,01,10.50
2007,06,26,04,02,10.60
2007,06,26,04,03,10.60
2007,06,26,04,04,10.60
2007,06,26,04,05,10.60
2007,06,26,04,06,10.60
2007,06,26,04,07,10.60
2007,06,26,04,08,10.60
2007,06,26,04,09,10.60
2007,06,26,04,10,10.60
2007,06,26,04,11,10.60
2007,06,26,04,12,10.60
2007,06,26,04,13,10.60
2007,06,26,04,14,10.60
2007,06,26,04,15,10.60
2007,06,26,04,16,10.60
2007,06,26,04,17,10.50
2007,06,26,04,18,10.50
2007,06,26,04,19,10.50
2007,06,26,04,20,10.50
2007,06,26,04,21,10.40
2007,06,26,04,22,10.40
2007,06,26,04,23,10.40
2007,06,26,04,24,10.40
2007,06,26,04,25,10.40
2007,06,26,04,26,10.40
2007,06,26,04,27,10.40
2007,06,26,04,28,10.30
2007,06,26,04,29,10.30
2007,06,26,04,30,10.30
2007,06,26,04,31,10.30
2007,06,26,04,32,10.30
2007,06,26,04,33,10.20
2007,06,26,04,34,10.20
2007,06,26,04,35,10.20
2007,06,26,04,36,10.20
2007,06,26,04,37,10.20
2007,06,26,04,38,10.20
2007,06,26,04,39,10.20
2007,06,26,04,40,10.20
2007,06,26,04,41,10.20
2007,06,26,04,42,10.20
2007,06,26,04,43,10.20
2007,06,26,04,44,10.20
2007,06,26,04,45,10.20
2007,06,26,04,46,10.20
2007,06,26,04,47,10.20
2007,06,26,04,48,10.20
2007,06,26,04,49,10.20
2007,06,26,04,50,10.20
2007,06,26,04,51,10.20
2007,06,26,04,52,10.20
2007,06,26,04,53,10.20
2007,06,26,04,54,10.20
2007,06,26,04,55,10.20
2007,06,26,04,56,10.20
2007,06,26,04,57,10.20
2007,06,26,04,58,10.20
2007,06,26,04,59,10.20
2007,06,26,05,00,10.20
2007,06,26,05,01,10.20
2007,06,26,05,02,10.20
2007,06,26,05,03,10.20
2007,06,26,05,04,10.20
2007,06,26,05,05,10.20
2007,06,26,05,06,10.20
2007,06,26,05,07,10.10
2007,06,26,05,08,10.10
2007,06,26,05,09,10.10
2007,06,26,05,10,10.10
2007,06,26,05,11,10.10
2007,06,26,05,12,10.10
2007,06,26,05,13,10.10
2007,06,26,05,14,10.10
2007,06,26,05,15,10.10
2007,06,26,05,16,10.10
2007,06,26,05,17,10.10
2007,06,26,05,18,10.10
2007,06,26,05,19,10.10
2007,06,26,05,20,10.10
2007,06,26,05,21,10.10
2007,06,26,05,22,10.10
2007,06,26,05,23,10.10
2007,06,26,05,24,10.10
2007,06,26,05,25,10.10
2007,06,26,05,26,10.10
2007,06,26,05,27,10.10
2007,06,26,05,28,10.10
2007,06,26,05,29,10.10
2007,06,26,05,30,10.10
2007,06,26,05,31,10.10
2007,06,26,05,32,10.10
2007,06,26,05,33,10.10
2007,06,26,05,34,10.10
2007,06,26,05,35,10.20
2007,06,26,05,36,10.20
2007,06,26,05,37,10.20
2007,06,26,05,38,10.20
2007,06,26,05,39,10.20
2007,06,26,05,40,10.20
2007,06,26,05,41,10.30
2007,06,26,05,42,10.30
2007,06,26,05,43,10.30
2007,06,26,05,44,10.30
2007,06,26,05,45,10.30
2007,06,26,05,46,10.30
2007,06,26,05,47,10.30
2007,06,26,05,48,10.30
2007,06,26,05,49,10.30
2007,06,26,05,50,10.30
2007,06,26,05,51,10.30
2007,06,26,05,52,10.30
2007,06,26,05,53,10.30
2007,06,26,05,54,10.30
2007,06,26,05,55,10.40
2007,06,26,05,56,10.40
2007,06,26,05,57,10.40
2007,06,26,05,58,10.40
2007,06,26,05,59,10.40
2007,06,26,06,00,10.50
2007,06,26,06,01,10.50
2007,06,26,06,02,10.60
2007,06,26,06,03,10.60
2007,06,26,06,04,10.60
2007,06,26,06,05,10.60
2007,06,26,06,06,10.60
2007,06,26,06,07,10.70
2007,06,26,06,08,10.70
2007,06,26,06,09,10.70
2007,06,26,06,10,10.70
2007,06,26,06,11,10.70
2007,06,26,06,12,10.70
2007,06,26,06,13,10.70
2007,06,26,06,14,10.80
2007,06,26,06,15,10.80
2007,06,26,06,16,10.80
2007,06,26,06,17,10.80
2007,06,26,06,18,10.80
2007,06,26,06,19,10.80
2007,06,26,06,20,10.80
2007,06,26,06,21,10.90
2007,06,26,06,22,10.90
2007,06,26,06,23,10.90
2007,06,26,06,24,10.90
2007,06,26,06,25,11.00
2007,06,26,06,26,11.00
2007,06,26,06,27,11.10
2007,06,26,06,28,11.10
2007,06,26,06,29,11.10
2007,06,26,06,30,11.20
2007,06,26,06,31,11.20
2007,06,26,06,32,11.20
2007,06,26,06,33,11.20
2007,06,26,06,34,11.20
2007,06,26,06,35,11.30
2007,06,26,06,36,11.30
2007,06,26,06,37,11.30
2007,06,26,06,38,11.30
2007,06,26,06,39,11.40
2007,06,26,06,40,11.40
2007,06,26,06,41,11.40
2007,06,26,06,42,11.40
2007,06,26,06,43,11.50
2007,06,26,06,44,11.50
2007,06,26,06,45,11.60
2007,06,26,06,46,11.60
2007,06,26,06,47,11.60
2007,06,26,06,48,11.70
2007,06,26,06,49,11.70
2007,06,26,06,50,11.70
2007,06,26,06,51,11.80
2007,06,26,06,52,11.80
2007,06,26,06,53,11.90
2007,06,26,06,54,11.90
2007,06,26,06,55,11.90
2007,06,26,06,56,12.00
2007,06,26,06,57,12.00
2007,06,26,06,58,12.10
2007,06,26,06,59,12.20
2007,06,26,07,00,12.20
2007,06,26,07,01,12.30
2007,06,26,07,02,12.40
2007,06,26,07,03,12.50
2007,06,26,07,04,12.60
2007,06,26,07,05,12.60
2007,06,26,07,06,12.70
2007,06,26,07,07,12.70
2007,06,26,07,08,12.80
2007,06,26,07,09,12.80
2007,06,26,07,10,12.90
2007,06,26,07,11,12.90
2007,06,26,07,12,12.90
2007,06,26,07,13,12.90
2007,06,26,07,14,13.00
2007,06,26,07,15,13.00
2007,06,26,07,16,13.00
2007,06,26,07,17,13.10
2007,06,26,07,18,13.10
2007,06,26,07,19,13.10
2007,06,26,07,20,13.10
2007,06,26,07,21,13.10
2007,06,26,07,22,13.20
2007,06,26,07,23,13.20
2007,06,26,07,24,13.20
2007,06,26,07,25,13.30
2007,06,26,07,26,13.30
2007,06,26,07,27,13.40
2007,06,26,07,28,13.40
2007,06,26,07,29,13.40
2007,06,26,07,30,13.50
2007,06,26,07,31,13.60
2007,06,26,07,32,13.60
2007,06,26,07,33,13.70
2007,06,26,07,34,13.80
2007,06,26,07,35,13.80
2007,06,26,07,36,13.90
2007,06,26,07,37,13.90
2007,06,26,07,38,13.90
2007,06,26,07,39,14.00
2007,06,26,07,40,14.10
2007,06,26,07,41,14.10
2007,06,26,07,42,14.10
2007,06,26,07,43,14.10
2007,06,26,07,44,14.10
2007,06,26,07,45,14.10
2007,06,26,07,46,14.10
2007,06,26,07,47,14.10
2007,06,26,07,48,14.10
2007,06,26,07,49,14.10
2007,06,26,07,50,14.10
2007,06,26,07,51,14.10
2007,06,26,07,52,14.20
2007,06,26,07,53,14.20
2007,06,26,07,54,14.20
2007,06,26,07,55,14.30
2007,06,26,07,56,14.30
2007,06,26,07,57,14.40
2007,06,26,07,58,14.50
2007,06,26,07,59,14.60
2007,06,26,08,00,14.60
2007,06,26,08,01,14.70
2007,06,26,08,02,14.80
2007,06,26,08,03,14.90
2007,06,26,08,04,15.00
2007,06,26,08,05,15.00
2007,06,26,08,06,15.00
2007,06,26,08,07,15.00
2007,06,26,08,08,15.00
2007,06,26,08,09,15.00
2007,06,26,08,10,15.00
2007,06,26,08,11,15.10
2007,06,26,08,12,15.10
2007,06,26,08,13,15.10
2007,06,26,08,14,15.10
2007,06,26,08,15,15.10
2007,06,26,08,16,15.10
2007,06,26,08,17,15.10
2007,06,26,08,18,15.20
2007,06,26,08,19,15.20
2007,06,26,08,20,15.20
2007,06,26,08,21,15.20
2007,06,26,08,22,15.20
2007,06,26,08,23,15.20
2007,06,26,08,24,15.20
2007,06,26,08,25,15.20
2007,06,26,08,26,15.20
2007,06,26,08,27,15.20
2007,06,26,08,28,15.20
2007,06,26,08,29,15.20
2007,06,26,08,30,15.10
2007,06,26,08,31,15.00
2007,06,26,08,32,15.00
2007,06,26,08,33,15.00
2007,06,26,08,34,15.00
2007,06,26,08,35,15.00
2007,06,26,08,36,15.00
2007,06,26,08,37,15.00
2007,06,26,08,38,15.00
2007,06,26,08,39,15.00
2007,06,26,08,40,15.10
2007,06,26,08,41,15.00
2007,06,26,08,42,15.00
2007,06,26,08,43,15.00
2007,06,26,08,44,15.00
2007,06,26,08,45,15.00
2007,06,26,08,46,15.00
2007,06,26,08,47,15.00
2007,06,26,08,48,15.00
2007,06,26,08,49,15.00
2007,06,26,08,50,15.00
2007,06,26,08,51,15.00
2007,06,26,08,52,15.00
2007,06,26,08,53,15.00
2007,06,26,08,54,15.00
2007,06,26,08,55,15.00
2007,06,26,08,56,15.10
2007,06,26,08,57,15.20
2007,06,26,08,58,15.20
2007,06,26,08,59,15.20
2007,06,26,09,00,15.20
2007,06,26,09,01,15.10
2007,06,26,09,02,15.10
2007,06,26,09,03,15.20
2007,06,26,09,04,15.20
2007,06,26,09,05,15.20
2007,06,26,09,06,15.30
2007,06,26,09,07,15.40
2007,06,26,09,08,15.50
2007,06,26,09,09,15.60
2007,06,26,09,10,15.70
2007,06,26,09,11,15.70
2007,06,26,09,12,15.80
2007,06,26,09,13,15.80
2007,06,26,09,14,15.80
2007,06,26,09,15,15.70
2007,06,26,09,16,15.70
2007,06,26,09,17,15.70
2007,06,26,09,18,15.70
2007,06,26,09,19,15.70
2007,06,26,09,20,15.70
2007,06,26,09,21,15.70
2007,06,26,09,22,15.80
2007,06,26,09,23,15.90
2007,06,26,09,24,15.90
2007,06,26,09,25,16.00
2007,06,26,09,26,16.10
2007,06,26,09,27,16.10
2007,06,26,09,28,16.20
2007,06,26,09,29,16.30
2007,06,26,09,30,16.30
2007,06,26,09,31,16.30
2007,06,26,09,32,16.30
2007,06,26,09,33,16.30
2007,06,26,09,34,16.30
2007,06,26,09,35,16.30
2007,06,26,09,36,16.40
2007,06,26,09,37,16.40
2007,06,26,09,38,16.40
2007,06,26,09,39,16.40
2007,06,26,09,40,16.40
2007,06,26,09,41,16.40
2007,06,26,09,42,16.40
2007,06,26,09,43,16.40
2007,06,26,09,44,16.50
2007,06,26,09,45,16.50
2007,06,26,09,46,16.50
2007,06,26,09,47,16.60
2007,06,26,09,48,16.50
2007,06,26,09,49,16.50
2007,06,26,09,50,16.50
2007,06,26,09,51,16.40
2007,06,26,09,52,16.40
2007,06,26,09,53,16.40
2007,06,26,09,54,16.40
2007,06,26,09,55,16.50
2007,06,26,09,56,16.60
2007,06,26,09,57,16.70
2007,06,26,09,58,16.80
2007,06,26,09,59,16.90
2007,06,26,10,00,16.90
2007,06,26,10,01,17.00
2007,06,26,10,02,17.10
2007,06,26,10,03,17.10
2007,06,26,10,04,17.20
2007,06,26,10,05,17.20
2007,06,26,10,06,17.20
2007,06,26,10,07,17.30
2007,06,26,10,08,17.20
2007,06,26,10,09,17.20
2007,06,26,10,10,17.20
2007,06,26,10,11,17.10
2007,06,26,10,12,17.10
2007,06,26,10,13,17.10
2007,06,26,10,14,17.00
2007,06,26,10,15,17.00
2007,06,26,10,16,17.00
2007,06,26,10,17,17.00
2007,06,26,10,18,17.00
2007,06,26,10,19,17.00
2007,06,26,10,20,17.00
2007,06,26,10,21,17.00
2007,06,26,10,22,16.90
2007,06,26,10,23,16.80
2007,06,26,10,24,16.70
2007,06,26,10,25,16.70
2007,06,26,10,26,16.70
2007,06,26,10,27,16.70
2007,06,26,10,28,16.70
2007,06,26,10,29,16.70
2007,06,26,10,30,16.70
2007,06,26,10,31,16.80
2007,06,26,10,32,16.90
2007,06,26,10,33,17.00
2007,06,26,10,34,17.20
2007,06,26,10,35,17.30
2007,06,26,10,36,17.30
2007,06,26,10,37,17.30
2007,06,26,10,38,17.30
2007,06,26,10,39,17.30
2007,06,26,10,40,17.30
2007,06,26,10,41,17.40
2007,06,26,10,42,17.40
2007,06,26,10,43,17.60
2007,06,26,10,44,17.70
2007,06,26,10,45,17.80
2007,06,26,10,46,17.80
2007,06,26,10,47,17.80
2007,06,26,10,48,17.90
2007,06,26,10,49,17.90
2007,06,26,10,50,18.00
2007,06,26,10,51,18.00
2007,06,26,10,52,18.00
2007,06,26,10,53,18.00
2007,06,26,10,54,17.90
2007,06,26,10,55,17.90
2007,06,26,10,56,17.90
2007,06,26,10,57,17.90
2007,06,26,10,58,17.80
2007,06,26,10,59,17.80
2007,06,26,11,00,17.80
2007,06,26,11,01,17.80
2007,06,26,11,02,17.80
2007,06,26,11,03,17.70
2007,06,26,11,04,17.70
2007,06,26,11,05,17.70
2007,06,26,11,06,17.60
2007,06,26,11,07,17.60
2007,06,26,11,08,17.60
2007,06,26,11,09,17.50
2007,06,26,11,10,17.50
2007,06,26,11,11,17.50
2007,06,26,11,12,17.50
2007,06,26,11,13,17.40
2007,06,26,11,14,17.30
2007,06,26,11,15,17.20
2007,06,26,11,16,17.20
2007,06,26,11,17,17.20
2007,06,26,11,18,17.10
2007,06,26,11,19,17.10
2007,06,26,11,20,17.10
2007,06,26,11,21,17.10
2007,06,26,11,22,17.10
2007,06,26,11,23,17.20
2007,06,26,11,24,17.20
2007,06,26,11,25,17.20
2007,06,26,11,26,17.30
2007,06,26,11,27,17.30
2007,06,26,11,28,17.40
2007,06,26,11,29,17.40
2007,06,26,11,30,17.50
2007,06,26,11,31,17.50
2007,06,26,11,32,17.50
2007,06,26,11,33,17.50
2007,06,26,11,34,17.60
2007,06,26,11,35,17.60
2007,06,26,11,36,17.60
2007,06,26,11,37,17.60
2007,06,26,11,38,17.70
2007,06,26,11,39,17.70
2007,06,26,11,40,17.80
2007,06,26,11,41,17.80
2007,06,26,11,42,17.90
2007,06,26,11,43,17.90
2007,06,26,11,44,17.90
2007,06,26,11,45,17.80
2007,06,26,11,46,17.80
2007,06,26,11,47,17.70
2007,06,26,11,48,17.70
2007,06,26,11,49,17.80
2007,06,26,11,50,17.80
2007,06,26,11,51,17.70
2007,06,26,11,52,17.70
2007,06,26,11,53,17.80
2007,06,26,11,54,17.80
2007,06,26,11,55,17.90
2007,06,26,11,56,17.90
2007,06,26,11,57,17.80
2007,06,26,11,58,17.80
2007,06,26,11,59,17.90
2007,06,26,12,00,17.90
2007,06,26,12,01,18.00
2007,06,26,12,02,18.10
2007,06,26,12,03,18.20
2007,06,26,12,04,18.40
2007,06,26,12,05,18.50
2007,06,26,12,06,18.70
2007,06,26,12,07,18.80
2007,06,26,12,08,18.80
2007,06,26,12,09,18.90
2007,06,26,12,10,19.00
2007,06,26,12,11,19.00
2007,06,26,12,12,18.90
2007,06,26,12,13,19.00
2007,06,26,12,14,19.00
2007,06,26,12,15,18.90
2007,06,26,12,16,18.90
2007,06,26,12,17,18.90
2007,06,26,12,18,19.00
2007,06,26,12,19,19.00
2007,06,26,12,20,19.00
2007,06,26,12,21,19.00
2007,06,26,12,22,19.00
2007,06,26,12,23,19.00
2007,06,26,12,24,19.10
2007,06,26,12,25,19.20
2007,06,26,12,26,19.20
2007,06,26,12,27,19.30
2007,06,26,12,28,19.40
2007,06,26,12,29,19.40
2007,06,26,12,30,19.40
2007,06,26,12,31,19.30
2007,06,26,12,32,19.10
2007,06,26,12,33,19.00
2007,06,26,12,34,18.90
2007,06,26,12,35,18.80
2007,06,26,12,36,18.80
2007,06,26,12,37,18.80
2007,06,26,12,38,18.80
2007,06,26,12,39,18.80
2007,06,26,12,40,18.80
2007,06,26,12,41,18.90
2007,06,26,12,42,19.00
2007,06,26,12,43,19.10
2007,06,26,12,44,19.20
2007,06,26,12,45,19.40
2007,06,26,12,46,19.50
2007,06,26,12,47,19.80
2007,06,26,12,48,19.90
2007,06,26,12,49,20.00
2007,06,26,12,50,20.00
2007,06,26,12,51,20.00
2007,06,26,12,52,20.10
2007,06,26,12,53,20.20
2007,06,26,12,54,20.20
2007,06,26,12,55,20.20
2007,06,26,12,56,20.20
2007,06,26,12,57,20.20
2007,06,26,12,58,20.10
2007,06,26,12,59,20.00
2007,06,26,13,00,19.90
2007,06,26,13,01,19.90
2007,06,26,13,02,19.80
2007,06,26,13,03,19.70
2007,06,26,13,04,19.70
2007,06,26,13,05,19.70
2007,06,26,13,06,19.70
2007,06,26,13,07,19.70
2007,06,26,13,08,19.60
2007,06,26,13,09,19.60
2007,06,26,13,10,19.60
2007,06,26,13,11,19.60
2007,06,26,13,12,19.60
2007,06,26,13,13,19.60
2007,06,26,13,14,19.60
2007,06,26,13,15,19.60
2007,06,26,13,16,19.60
2007,06,26,13,17,19.50
2007,06,26,13,18,19.50
2007,06,26,13,19,19.50
2007,06,26,13,20,19.50
2007,06,26,13,21,19.60
2007,06,26,13,22,19.70
2007,06,26,13,23,19.80
2007,06,26,13,24,19.80
2007,06,26,13,25,19.70
2007,06,26,13,26,19.70
2007,06,26,13,27,19.60
2007,06,26,13,28,19.50
2007,06,26,13,29,19.50
2007,06,26,13,30,19.40
2007,06,26,13,31,19.30
2007,06,26,13,32,19.20
2007,06,26,13,33,19.20
2007,06,26,13,34,19.10
2007,06,26,13,35,19.00
2007,06,26,13,36,18.90
2007,06,26,13,37,18.80
2007,06,26,13,38,18.80
2007,06,26,13,39,18.80
2007,06,26,13,40,18.80
2007,06,26,13,41,18.80
2007,06,26,13,42,18.90
2007,06,26,13,43,18.90
2007,06,26,13,44,19.00
2007,06,26,13,45,19.10
2007,06,26,13,46,19.20
2007,06,26,13,47,19.20
2007,06,26,13,48,19.10
2007,06,26,13,49,19.10
2007,06,26,13,50,19.10
2007,06,26,13,51,19.10
2007,06,26,13,52,19.10
2007,06,26,13,53,19.10
2007,06,26,13,54,19.10
2007,06,26,13,55,19.20
2007,06,26,13,56,19.30
2007,06,26,13,57,19.30
2007,06,26,13,58,19.30
2007,06,26,13,59,19.40
2007,06,26,14,00,19.40
2007,06,26,14,01,19.50
2007,06,26,14,02,19.50
2007,06,26,14,03,19.60
2007,06,26,14,04,19.60
2007,06,26,14,05,19.70
2007,06,26,14,06,19.80
2007,06,26,14,07,19.90
2007,06,26,14,08,19.90
2007,06,26,14,09,20.00
2007,06,26,14,10,20.00
2007,06,26,14,11,20.10
2007,06,26,14,12,20.00
2007,06,26,14,13,20.00
2007,06,26,14,14,19.90
2007,06,26,14,15,19.90
2007,06,26,14,16,19.80
2007,06,26,14,17,19.70
2007,06,26,14,18,19.70
2007,06,26,14,19,19.60
2007,06,26,14,20,19.70
2007,06,26,14,21,19.70
2007,06,26,14,22,19.80
2007,06,26,14,23,19.90
2007,06,26,14,24,20.00
2007,06,26,14,25,20.00
2007,06,26,14,26,20.00
2007,06,26,14,27,20.10
2007,06,26,14,28,20.10
2007,06,26,14,29,20.10
2007,06,26,14,30,20.10
2007,06,26,14,31,20.10
2007,06,26,14,32,20.10
2007,06,26,14,33,20.10
2007,06,26,14,34,20.10
2007,06,26,14,35,20.10
2007,06,26,14,36,20.10
2007,06,26,14,37,20.20
2007,06,26,14,38,20.30
2007,06,26,14,39,20.40
2007,06,26,14,40,20.50
2007,06,26,14,41,20.70
2007,06,26,14,42,20.70
2007,06,26,14,43,20.80
2007,06,26,14,44,20.80
2007,06,26,14,45,20.80
2007,06,26,14,46,20.90
2007,06,26,14,47,21.00
2007,06,26,14,48,21.10
2007,06,26,14,49,21.20
2007,06,26,14,50,21.20
2007,06,26,14,51,21.30
2007,06,26,14,52,21.30
2007,06,26,14,53,21.30
2007,06,26,14,54,21.30
2007,06,26,14,55,21.30
2007,06,26,14,56,21.30
2007,06,26,14,57,21.20
2007,06,26,14,58,21.10
2007,06,26,14,59,21.00
2007,06,26,15,00,20.90
2007,06,26,15,01,20.80
2007,06,26,15,02,20.70
2007,06,26,15,03,20.60
2007,06,26,15,04,20.60
2007,06,26,15,05,20.60
2007,06,26,15,06,20.60
2007,06,26,15,07,20.50
2007,06,26,15,08,20.50
2007,06,26,15,09,20.60
2007,06,26,15,10,20.60
2007,06,26,15,11,20.60
2007,06,26,15,12,20.50
2007,06,26,15,13,20.50
2007,06,26,15,14,20.50
2007,06,26,15,15,20.50
2007,06,26,15,16,20.50
2007,06,26,15,17,20.40
2007,06,26,15,18,20.40
2007,06,26,15,19,20.30
2007,06,26,15,20,20.20
2007,06,26,15,21,20.20
2007,06,26,15,22,20.20
2007,06,26,15,23,20.20
2007,06,26,15,24,20.20
2007,06,26,15,25,20.20
2007,06,26,15,26,20.30
2007,06,26,15,27,20.30
2007,06,26,15,28,20.30
2007,06,26,15,29,20.40
2007,06,26,15,30,20.30
2007,06,26,15,31,20.30
2007,06,26,15,32,20.30
2007,06,26,15,33,20.30
2007,06,26,15,34,20.20
2007,06,26,15,35,20.20
2007,06,26,15,36,20.10
2007,06,26,15,37,20.00
2007,06,26,15,38,19.80
2007,06,26,15,39,19.70
2007,06,26,15,40,19.50
2007,06,26,15,41,19.40
2007,06,26,15,42,19.30
2007,06,26,15,43,19.30
2007,06,26,15,44,19.30
2007,06,26,15,45,19.30
2007,06,26,15,46,19.30
2007,06,26,15,47,19.30
2007,06,26,15,48,19.30
2007,06,26,15,49,19.30
2007,06,26,15,50,19.30
2007,06,26,15,51,19.30
2007,06,26,15,52,19.40
2007,06,26,15,53,19.50
2007,06,26,15,54,19.50
2007,06,26,15,55,19.50
2007,06,26,15,56,19.50
2007,06,26,15,57,19.50
2007,06,26,15,58,19.40
2007,06,26,15,59,19.40
2007,06,26,16,00,19.40
2007,06,26,16,01,19.40
2007,06,26,16,02,19.40
2007,06,26,16,03,19.40
2007,06,26,16,04,19.40
2007,06,26,16,05,19.50
2007,06,26,16,06,19.50
2007,06,26,16,07,19.50
2007,06,26,16,08,19.50
2007,06,26,16,09,19.50
2007,06,26,16,10,19.40
2007,06,26,16,11,19.30
2007,06,26,16,12,19.20
2007,06,26,16,13,19.20
2007,06,26,16,14,19.10
2007,06,26,16,15,19.10
2007,06,26,16,16,19.00
2007,06,26,16,17,19.00
2007,06,26,16,18,19.10
2007,06,26,16,19,19.10
2007,06,26,16,20,19.20
2007,06,26,16,21,19.20
2007,06,26,16,22,19.30
2007,06,26,16,23,19.30
2007,06,26,16,24,19.30
2007,06,26,16,25,19.30
2007,06,26,16,26,19.30
2007,06,26,16,27,19.30
2007,06,26,16,28,19.30
2007,06,26,16,29,19.30
2007,06,26,16,30,19.40
2007,06,26,16,31,19.40
2007,06,26,16,32,19.40
2007,06,26,16,33,19.50
2007,06,26,16,34,19.50
2007,06,26,16,35,19.50
2007,06,26,16,36,19.50
2007,06,26,16,37,19.50
2007,06,26,16,38,19.50
2007,06,26,16,39,19.40
2007,06,26,16,40,19.40
2007,06,26,16,41,19.40
2007,06,26,16,42,19.40
2007,06,26,16,43,19.40
2007,06,26,16,44,19.40
2007,06,26,16,45,19.40
2007,06,26,16,46,19.40
2007,06,26,16,47,19.40
2007,06,26,16,48,19.40
2007,06,26,16,49,19.40
2007,06,26,16,50,19.40
2007,06,26,16,51,19.50
2007,06,26,16,52,19.50
2007,06,26,16,53,19.50
2007,06,26,16,54,19.50
2007,06,26,16,55,19.60
2007,06,26,16,56,19.60
2007,06,26,16,57,19.60
2007,06,26,16,58,19.60
2007,06,26,16,59,19.60
2007,06,26,17,00,19.60
2007,06,26,17,01,19.60
2007,06,26,17,02,19.60
2007,06,26,17,03,19.60
2007,06,26,17,04,19.60
2007,06,26,17,05,19.60
2007,06,26,17,06,19.60
2007,06,26,17,07,19.50
2007,06,26,17,08,19.50
2007,06,26,17,09,19.40
2007,06,26,17,10,19.40
2007,06,26,17,11,19.40
2007,06,26,17,12,19.40
2007,06,26,17,13,19.30
2007,06,26,17,14,19.30
2007,06,26,17,15,19.30
2007,06,26,17,16,19.30
2007,06,26,17,17,19.30
2007,06,26,17,18,19.30
2007,06,26,17,19,19.20